Content
SEND FEEDBACK

Daily
Averages
Monthly
Summary
United States of America

CHILCOOT, CALIFORNIA


Home > North America > United States > California
Elevation: 1510 meters     Latitude: 39 49N     Longitude: 120 11W

WEATHER
 
SELECT A DAY
Number of Records: 64,073;   Date Range: 9/21/11 - 7/10/14
 
SHARE

PRINT THIS DATA

[ ← Previous Day ]
WEATHER ALMANAC - 3 JANUARY, 2013
[ Next Day → ]
[ °F ]   °C
Weather ElementAverageHighLow
Temperature-11.2 °C-3 °C (1:55 pm)-18 °C (2:55 am)
Dewpoint-14.7 °C-10 °C (12:55 pm)-22 °C (6:55 am)
Humidity76.5 %92 % (10:15 pm)59 % (11:55 am)
Barometer1025.7 hPa1027.4 hPa (10:55 pm)1024.7 hPa (4:15 am)
Wind Speed3.4 km/h13 km/h (4:35 pm)
Weather ElementAverage
Visibility15.3 km
Wind DirectionENE (73 °)

Weather ElementTotal
Precipitation---
Heating Degree Days28.8 (Base 18.3)
Averaged from 69 records on 3 January, 2013
WEATHER CONDITIONS BREAKOUT
WIND DIRECTION BREAKOUT
WEATHER BY HOUR - 3 JANUARY, 2013
[ °F ]   °C
Local TimeTemperatureDewpointHumidityBarometerVisibilityWind DirectionWind SpeedGust SpeedPrecipitationEventsConditions
12:35 AM-14 °C-16 °C85 %1025.1 hPa16.1 kmCalm
12:55 AM-17 °C-19 °C85 %1025.1 hPa16.1 kmCalm
1:15 AM-15 °C-17 °C85 %1025.1 hPa16.1 kmCalm
1:35 AM-15 °C-17 °C85 %1025.4 hPa16.1 kmSSE (150°)5.6 km/h
1:55 AM-16 °C-18 °C85 %1025.4 hPa14.5 kmCalm
2:15 AM-17 °C-19 °C85 %1025.7 hPa16.1 kmNE (50°)5.6 km/h
2:35 AM-15 °C-17 °C85 %1025.4 hPa16.1 kmCalmClear
2:55 AM-18 °C-21 °C78 %1025.4 hPa16.1 kmWNW (300°)5.6 km/hClear
3:15 AM-17 °C-19 °C85 %1025.1 hPa16.1 kmWNW (300°)5.6 km/hClear
3:35 AM-18 °C-20 °C85 %1025.1 hPa16.1 kmCalmClear
3:55 AM-18 °C-21 °C78 %1025.1 hPa16.1 kmCalmClear
4:15 AM-17 °C-19 °C85 %1024.7 hPa16.1 kmEast (80°)5.6 km/hClear
4:35 AM-16 °C-18 °C85 %1024.7 hPa16.1 kmESE (120°)7.4 km/hClear
5:15 AM-16 °C-19 °C78 %1025.1 hPa16.1 kmCalmClear
5:35 AM-15 °C-18 °C78 %1025.1 hPa16.1 kmNorth (10°)5.6 km/hClear
5:55 AM-17 °C-19 °C85 %1025.1 hPa16.1 kmESE (120°)7.4 km/hClear
6:15 AM-18 °C-20 °C85 %1025.1 hPa12.9 kmSSW (200°)5.6 km/hClear
6:35 AM-16 °C-18 °C85 %1025.4 hPa16.1 kmWSW (240°)7.4 km/hClear
6:55 AM-18 °C-22 °C72 %1025.4 hPa16.1 kmWNW (290°)7.4 km/hClear
7:15 AM-18 °C-21 °C78 %1025.4 hPa16.1 kmNorth (350°)5.6 km/hClear
7:35 AM-17 °C-19 °C85 %1025.4 hPa12.9 kmENE (60°)5.6 km/hClear
7:55 AM-17 °C-20 °C78 %1025.4 hPa12.9 kmCalmClear
8:15 AM-16 °C-18 °C85 %1025.7 hPa11.3 kmESE (120°)5.6 km/hClear
8:35 AM-14 °C-17 °C79 %1025.7 hPa11.3 kmCalmClear
8:55 AM-13 °C-16 °C79 %1026.1 hPa12.9 kmCalmClear
9:15 AM-13 °C-15 °C85 %1026.4 hPa12.9 kmCalm
9:35 AM-12 °C-14 °C85 %1026.8 hPa11.3 kmCalm
9:55 AM-10 °C-14 °C73 %1027.1 hPa12.9 kmCalm
10:15 AM-9 °C-13 °C73 %1027.1 hPa16.1 kmCalm
10:35 AM-8 °C-12 °C73 %1026.8 hPa14.5 kmCalm
10:55 AM-7 °C-12 °C68 %1026.8 hPa16.1 kmCalm
11:15 AM-7 °C-12 °C68 %1026.4 hPa16.1 kmCalm
11:35 AM-6 °C-11 °C68 %1026.1 hPa16.1 kmCalm
11:55 AM-4 °C-11 °C59 %1025.7 hPa16.1 kmCalm
12:15 PM-5 °C-11 °C63 %1025.7 hPa16.1 kmCalm
12:35 PM-5 °C-11 °C63 %1025.4 hPa16.1 kmSouth (170°)5.6 km/h
12:55 PM-4 °C-10 °C64 %1025.1 hPa16.1 kmESE (120°)5.6 km/h
1:15 PM-4 °C-10 °C64 %1024.7 hPa16.1 kmSE (130°)5.6 km/h
1:35 PM-4 °C-10 °C64 %1024.7 hPa16.1 kmESE (120°)5.6 km/h
1:55 PM-3 °C-10 °C59 %1025.1 hPa16.1 kmCalm
2:15 PM-3 °C-10 °C59 %1024.7 hPa16.1 kmCalm
2:55 PM-3 °C-10 °C59 %1025.1 hPa16.1 kmESE (120°)5.6 km/h
3:15 PM-3 °C-10 °C59 %1025.1 hPa16.1 kmCalm
3:35 PM-3 °C-10 °C59 %1025.4 hPa16.1 kmCalm
3:55 PM-3 °C-10 °C59 %1025.4 hPa16.1 kmEast (90°)7.4 km/h
4:15 PM-4 °C-10 °C64 %1025.4 hPa16.1 kmEast (90°)9.3 km/h
4:35 PM-5 °C-10 °C68 %1025.4 hPa16.1 kmEast (80°)13 km/h
4:55 PM-7 °C-11 °C74 %1025.4 hPa16.1 kmEast (80°)11.1 km/h
5:15 PM-8 °C-12 °C73 %1025.4 hPa16.1 kmEast (80°)11.1 km/h
5:35 PM-8 °C-12 °C73 %1025.4 hPa16.1 kmEast (80°)13 km/h
5:55 PM-9 °C-13 °C73 %1025.7 hPa16.1 kmCalm
6:15 PM-10 °C-13 °C79 %1025.7 hPa16.1 kmNorth (350°)5.6 km/h
6:35 PM-8 °C-12 °C73 %1025.7 hPa16.1 kmNE (50°)5.6 km/h
6:55 PM-9 °C-13 °C73 %1026.1 hPa16.1 kmNNE (30°)5.6 km/h
7:15 PM-9 °C-12 °C79 %1026.4 hPa16.1 kmCalm
7:35 PM-9 °C-12 °C79 %1026.4 hPa16.1 kmCalm
7:55 PM-11 °C-13 °C85 %1026.8 hPa16.1 kmCalm
8:15 PM-10 °C-13 °C79 %1026.8 hPa16.1 kmCalm
8:35 PM-13 °C-16 °C79 %1027.1 hPa16.1 kmCalm
8:55 PM-13 °C-15 °C85 %1027.1 hPa16.1 kmNorth (360°)9.3 km/h
9:15 PM-13 °C-15 °C85 %1027.1 hPa16.1 kmNNW (340°)7.4 km/h
9:35 PM-12 °C-14 °C85 %1027.1 hPa16.1 kmNorth (10°)7.4 km/h
9:55 PM-11 °C-13 °C85 %1027.1 hPa16.1 kmCalm
10:15 PM-13 °C-14 °C92 %1027.1 hPa12.9 kmCalm
10:35 PM-13 °C-15 °C85 %1027.1 hPa14.5 kmCalm
10:55 PM-13 °C-15 °C85 %1027.4 hPa14.5 kmCalm
11:15 PM-15 °C-18 °C78 %1027.4 hPa16.1 kmNNW (340°)9.3 km/h
11:35 PM-14 °C-17 °C79 %1027.4 hPa16.1 kmNorth (10°)5.6 km/h
11:55 PM-13 °C-15 °C85 %1027.1 hPa8 kmCalmMist
Hourly data recorded from KRTS, located 0 kilometers away from Chilcoot, California







STORIES FROM OUR PARTNERS